Location: Bad Salzschlirf
(50.3750°N, 9.3000°E)
Time: 06:39:53
(UTC+01:00)

ISS - Pass Details

Date: 11 December 2019
Orbit: 411 x 421 km, 51.6° (Epoch: 15 December)

Event Time Altitude Azimuth Distance (km) Brightness Sun altitude
Rises 17:35:12 0° 284° (WNW) 2,357 1.0 -11.4°
Reaches altitude 10° 17:37:39 10° 267° (W) 1,493 0.3 -11.7°
Maximum altitude 17:40:10 20° 218° (SW) 1,028 -1.0 -12.1°
Drops below altitude 10° 17:42:42 10° 169° (SSE) 1,490 -0.8 -12.5°
Sets 17:45:08 0° 151° (SSE) 2,352 0.0 -12.8°
